STARLINK-34057, 63814

Orbit data source: Space-Track

STARLINK-34057, 63814 is a payload satellite owned by SpaceX/Seattle (US) in LEO that was launched on Sun, 04 May 2025 UTC via an FALCON 9 launch vehicle from the Air Force Eastern Test Range (AFETR). Payload-class satellites include a variety of spacecraft equipped with specific instruments for various scientific and technological missions. These include communications satellites like Starlink; space stations such as the ISS; scientific satellites like the Hubble; Earth observation satellites from companies like Planet Labs, Umbra, and HawkEye 360; GPS; miniature CubeSats for education and research; and military/defense satellites.

Loading next visibility...
Identifier
63814, 2025-092L
Orbit
LEO
Last TLE update
15 hours ago
Origin
Manufacturer
SpaceX/Seattle
Mission
Operational spacecraft
Bus & Motor
STARLINK V2MO, Unknown motor
Mass
575 kg wet, ~530 kg dry
Launch date (UTC)
2025-05-04 (1 week ago)
Launch vehicle
FALCON 9
Launch site
Air Force Eastern Test Range (AFETR)
Object type
Payload
Rocket body
Debris
Shape & HBR
Unknown
Radar Cross Section
Medium (>0.1 m² and <1 m²)

Expand to show TLE details & history

TLE from 15 hours ago
0 STARLINK-34057
1 63814U 25092L   25132.91668981 -.00913554  00000-0 -33655-2 0  9994
2 63814  43.0007  80.1499 0001601 254.7783  60.4731 15.89312932  2515
Epoch: 2025-05-12T22:00Z
Definitive object data (Epoch: 2025-05-12T22:00:01.999Z)
Latitude
-28.8637°
Longitude
-156.77814°
Altitude
311.236 km
Speed
7.722 km/s
True Right ascension
02h 56m 36s
True Declination
-28° 42' 32"
Sunlit
Object was in daylight at TLE epoch
Visualization TLE readout
Latitude
-7.51063°
Longitude
-132.79185°
Altitude
308.765 km
Speed
7.724 km/s
Apparent Right ascension
06h 38m 55s
Apparent Declination
-28° 29' 16"
Sunlit
Object is in daylight
Visualization observer readout
Local Sidereal Time
21:39:33
Azimuth
87.072° E
Elevation
-51.392°
Doppler factor
1
Orbital elements
Apogee altitude
307.275 km
Perigee altitude
305.135 km
Semi-major axis
6,684.342 km
Eccentricity
0.0001601
Inclination
43.0007°
RAAN
80.1499°
Arg. of periapsis
254.7783°
True anomaly
60.48906°
Mean anomaly
60.4731°
Eccentric anomaly
60.48108°
Mean motion
3.97151 °/min
BSTAR
-0.0033655
Orbital period
90.65 mins
Loading maneuver chart data...
Loading SW <> Apogee altitude chart data...
Loading historical data...
Loading historical data...
Loading historical data...
Loading historical data...
Loading historical data...
Loading historical data...
Loading historical data...

STARLINK-34057 Visibility forecast

Observer location: undefined°, undefined°

Span
Click to sort rows by Start time (UTC) header in descending order
Start Az.
Max El. time (UTC)
Max El. Az.
Max El.
End time (UTC)
End Az.
4 mins2025-05-14 00:04:49.786Z229.185° WSW2025-05-14 00:06:49.786Z153.696° SSE37.258°2025-05-14 00:08:49.786Z82.299° E
|